Date,TemperatureHighF,TemperatureAvgF,TemperatureLowF,DewpointHighF,DewpointAvgF,DewpointLowF,HumidityHigh,HumidityAvg,HumidityLow,PressureMaxIn,PressureMinIn,WindSpeedMaxMPH,WindSpeedAvgMPH,GustSpeedMaxMPH,PrecipitationSumIn
2013-2-1,45.5,40.2,35.6,34.9,30.3,26.3,83,68,53,30.18,29.92,13,4,18,0.00
2013-2-2,42.1,35.2,29.2,29.5,25.6,22.2,76,68,58,30.25,30.07,7,2,9,0.00
2013-2-3,40.9,32.8,23.8,30.5,25.2,19.1,84,74,65,30.07,29.86,5,1,5,0.00
2013-2-4,45.0,41.4,36.9,31.2,29.5,27.6,69,62,56,29.88,29.81,11,3,14,0.00
2013-2-5,44.3,40.6,35.8,35.6,31.2,27.2,77,69,59,29.82,29.62,9,2,9,0.00
2013-2-6,44.1,37.5,30.2,35.6,28.7,22.8,83,71,60,29.89,29.74,10,3,12,0.01
2013-2-7,37.6,32.3,27.0,27.5,24.2,21.0,79,72,64,29.88,29.74,6,1,6,0.00
2013-2-8,39.8,35.1,29.7,30.6,27.9,24.4,83,75,67,29.85,29.78,8,1,8,0.00
2013-2-9,35.3,32.2,30.2,26.9,24.5,22.0,86,73,64,29.90,29.76,5,2,6,0.03
2013-2-10,37.4,31.1,26.8,28.5,22.9,18.5,84,72,53,30.00,29.90,9,2,10,0.00
2013-2-11,36.4,30.4,24.1,25.4,21.6,17.3,75,70,63,29.97,29.92,7,2,8,0.00
2013-2-12,41.4,36.1,31.7,30.8,27.1,23.0,78,70,62,30.02,29.92,8,2,16,0.00
2013-2-13,42.5,39.8,34.9,33.7,30.6,27.1,77,70,64,30.04,29.87,12,3,15,0.00
2013-2-14,41.8,36.9,30.6,28.6,25.3,22.8,74,63,49,30.23,30.04,17,3,18,0.00
2013-2-15,45.2,39.8,33.3,30.7,27.8,24.7,71,62,55,30.26,30.10,6,2,7,0.00
2013-2-16,42.5,35.1,26.3,33.9,27.8,20.9,83,75,66,30.10,29.66,14,2,17,0.03
2013-2-17,40.0,35.5,32.4,30.9,27.9,25.5,85,74,66,29.89,29.70,11,2,11,0.12
2013-2-18,42.8,34.8,28.4,27.6,24.3,21.1,84,67,46,29.90,29.63,10,2,10,0.00
2013-2-19,41.4,34.6,28.6,27.9,23.5,20.4,73,64,49,29.63,29.50,6,1,6,0.00
2013-2-20,38.9,34.3,29.9,28.8,23.4,18.3,82,65,49,29.76,29.61,8,2,10,0.02
2013-2-21,39.6,31.2,21.8,25.0,19.4,12.8,71,62,48,29.85,29.74,10,3,13,0.00
2013-2-22,44.3,36.6,29.5,28.8,25.3,22.5,77,64,49,29.80,29.49,14,3,21,0.00
2013-2-23,38.5,34.3,29.3,29.5,21.3,16.7,79,59,48,29.96,29.47,18,4,19,0.00
2013-2-24,39.4,33.1,28.3,23.6,20.2,17.2,68,59,48,30.05,29.93,9,3,15,0.00
2013-2-25,41.9,34.2,28.4,27.1,22.0,18.0,71,61,51,29.93,29.72,12,3,14,0.00
2013-2-26,40.0,34.8,29.2,24.4,21.5,17.7,73,59,45,30.07,29.84,8,2,11,0.00
2013-2-27,40.1,32.7,24.8,24.0,20.1,16.0,71,60,50,30.08,30.03,8,2,8,0.00
2013-2-28,45.2,37.3,30.4,34.2,28.2,19.3,80,70,60,30.15,30.04,5,1,6,0.01